Temperature
18 18 18 18 18 18 18 18 18 18 18 18 18 18 18 18 18 18 18 18 18 18 18 18 17 17 17 17 17 17 17 17 17 17 17 17 17 16 16 16 16 16 16
18 18 18 18 18 18 18 18 18 18 18 18 18 18 18 18 18 18 18 18 18 18 18 18 17 17 17 17 17 17 17 17 17 17 17 17 17 16 16 16 16 16 16
18 18 18 18 18 18 18 18 18 18 18 18 18 18 18 18 18 18 18 18 18 18 18 18 18 17 17 17 17 17 17 17 17 17 17 17 17 17 16 16 16 16 16
18 18 18 18 18 18 18 18 18 18 18 18 18 18 18 18 18 18 18 18 18 18 18 18 18 18 18 17 17 17 17 17 17 17 17 17 17 17 16 16 16 16 16
18 18 18 18 18 18 18 18 18 18 18 18 18 18 18 18 18 18 18 18 18 18 18 18 18 18 18 18 17 17 17 17 17 17 17 17 17 17 16 16 16 16 16
18 18 18 18 18 18 18 18 18 18 18 18 18 18 18 18 18 18 18 18 18 18 18 18 18 18 18 18 17 17 17 17 17 17 17 17 17 17 17 16 16 16 16
18 18 18 18 18 18 18 18 18 18 18 18 18 18 19 19 18 18 18 18 18 18 18 18 18 18 18 18 18 17 17 17 17 17 17 17 17 17 17 16 16 16 16
18 18 18 18 18 18 18 18 18 18 18 18 18 18 18 18 18 18 18 18 18 18 18 18 18 18 18 18 18 17 17 17 17 17 17 17 17 17 17 16 16 16 16
18 18 18 18 18 18 18 18 18 18 18 18 18 17 18 18 18 18 18 18 18 18 18 18 18 18 18 18 18 18 17 17 17 17 17 17 17 17 17 16 16 16 16
18 18 18 18 18 18 18 18 18 18 18 18 18 18 17 17 17 18 18 18 18 18 18 18 18 18 18 18 18 18 17 17 17 17 17 17 17 17 17 17 16 16 16
19 18 18 18 18 18 18 18 18 18 18 18 17 17 17 17 17 17 18 18 18 18 18 18 18 18 18 18 18 18 17 17 17 17 17 17 17 17 16 16 16 16 16
19 19 18 18 18 18 18 18 18 18 18 18 17 17 17 17 17 17 17 17 18 18 18 18 18 18 18 18 18 18 17 17 17 17 17 17 17 16 16 16 16 16 16
19 19 18 18 18 18 18 18 18 18 18 17 17 17 17 17 17 17 17 17 17 18 18 18 18 18 18 18 18 18 17 17 17 17 17 17 17 16 16 16 16 16 16
19 19 18 18 18 18 18 18 18 18 18 18 17 17 17 17 17 17 17 17 17 17 18 18 18 18 18 18 18 17 17 17 17 17 17 16 16 16 16 16 16 15 15
19 18 18 18 18 18 18 18 18 18 18 17 17 17 17 17 17 17 17 17 17 17 17 17 17 17 17 17 17 17 17 17 17 17 16 16 16 16 16 16 15 15 15
18 18 18 18 18 18 18 18 18 17 17 17 17 17 17 17 17 17 17 17 17 17 16 17 17 17 17 17 17 17 17 17 17 16 16 16 16 16 16 15 15 15 15
18 18 18 18 18 18 18 18 18 17 17 17 17 17 17 17 17 17 17 17 16 16 16 17 17 17 17 17 17 16 16 16 16 16 16 16 16 16 15 15 15 15 15
18 18 18 18 18 18 18 18 17 17 17 17 17 17 17 17 17 17 16 16 16 16 16 16 16 16 16 16 16 16 16 16 16 16 16 15 15 15 15 15 15 14 14
18 18 18 18 18 18 18 17 17 17 17 17 17 17 17 17 17 16 16 16 16 16 16 16 16 16 16 16 16 16 16 15 15 15 15 15 15 15 15 14 14 14 14
18 18 18 17 17 17 17 17 17 17 17 17 17 17 16 16 16 16 16 16 16 16 16 16 16 16 15 15 15 15 15 15 15 15 15 14 14 14 14 14 14 14 14
17 17 17 17 17 17 17 17 17 17 17 17 17 16 16 16 16 16 16 16 16 16 16 16 15 15 15 15 15 15 15 15 15 14 14 14 14 14 14 14 14 13 13
17 17 17 17 17 17 17 17 17 16 16 16 16 16 16 16 16 16 16 16 16 16 15 15 15 15 15 15 15 15 15 14 14 14 14 14 14 14 13 13 13 13 13
17 16 16 16 16 16 16 16 16 16 16 16 16 16 16 16 16 16 15 15 15 15 15 15 15 15 15 15 15 15 14 14 14 14 14 14 13 13 13 13 13 13 13
16 16 16 16 16 16 16 16 16 16 16 16 16 16 16 16 16 15 15 15 15 15 15 15 15 15 15 15 14 14 14 14 14 13 13 13 13 13 13 13 13 12 12
16 16 16 16 16 16 16 16 16 15 15 16 16 15 15 15 15 15 15 15 15 15 15 15 15 14 14 14 14 14 13 13 13 13 13 12 12 12 12 12 12 12 12
16 16 16 15 15 15 15 15 15 15 15 15 15 15 15 15 15 15 14 14 14 15 15 14 14 14 14 14 14 14 13 13 12 12 12 12 12 12 11 12 12 12 12
Wind_Speed
1 1 1 3 3 3 2 2 2 3 3 2 1 2 2 4 5 5 6 8 10 10 11 11 11 11 10 10 10 10 10 9 9 9 10 10 10 9 9 9 9 9 9
2 1 1 2 3 3 2 2 2 2 2 2 2 2 3 4 5 6 6 6 9 11 11 12 11 11 11 11 11 10 10 10 10 10 11 11 11 10 10 9 10 10 10
4 2 1 2 3 3 2 2 2 1 1 1 2 2 2 4 4 5 5 5 6 9 11 12 12 12 12 12 12 11 11 11 11 11 11 11 11 11 10 10 10 10 11
4 3 2 2 3 2 1 1 1 1 1 1 2 2 2 2 4 4 5 5 6 6 9 12 13 13 13 12 12 11 11 11 11 11 11 11 11 11 11 11 11 11 11
5 4 2 3 2 0 0 1 0 0 1 2 2 2 2 2 3 3 4 5 7 7 8 10 12 13 13 13 12 12 12 11 12 12 11 11 11 12 11 11 11 11 11
5 4 3 2 1 1 1 1 1 0 1 1 2 2 2 2 2 2 3 4 5 7 8 9 9 10 13 13 13 12 11 11 11 11 11 11 11 11 10 10 10 9 10
5 4 2 2 1 1 1 1 1 0 1 0 1 3 3 2 2 2 2 3 4 6 7 8 8 8 9 11 12 11 11 11 11 11 11 10 10 10 10 9 9 8 8
5 4 3 2 2 1 1 1 1 0 0 0 1 1 3 4 2 2 2 2 3 3 5 6 7 8 8 8 9 10 11 11 11 11 11 10 10 9 10 10 9 9 8
4 4 4 3 2 2 2 2 2 1 1 1 1 1 0 2 3 2 2 2 2 2 3 4 6 7 8 7 8 9 10 11 10 10 10 10 9 9 8 9 9 9 9
3 4 4 4 3 2 3 3 2 2 2 1 1 1 2 2 1 3 3 2 3 3 3 3 4 5 6 6 8 9 10 10 10 10 9 8 8 9 9 9 8 8 8
2 3 4 3 3 3 4 3 2 3 2 2 2 1 1 1 2 2 3 3 3 3 3 3 3 4 5 6 7 8 9 9 9 9 8 8 8 8 8 8 8 7 6
2 3 3 3 4 4 4 4 4 4 3 3 2 2 2 2 2 2 3 3 3 3 3 3 2 3 4 5 6 8 9 8 8 8 8 8 7 7 7 7 6 6 6
3 4 4 4 4 4 5 4 4 4 4 4 3 3 3 3 2 2 2 3 3 3 3 2 2 2 3 3 5 6 7 7 7 7 7 7 7 7 7 6 6 6 6
4 4 4 4 4 4 4 4 3 4 3 4 4 3 3 3 3 3 3 2 2 2 2 3 2 2 2 3 4 4 4 6 7 7 7 7 7 7 7 7 6 6 5
4 4 4 4 4 4 4 3 3 4 3 4 4 4 3 3 3 4 3 3 3 2 3 3 2 2 2 2 3 2 3 5 6 6 7 7 7 7 7 7 6 6 6
4 4 4 4 4 4 4 4 4 4 4 4 4 4 4 3 3 3 4 4 4 4 3 2 3 2 2 2 2 2 3 4 5 5 6 6 6 7 6 6 6 5 5
5 5 5 4 4 4 4 4 5 5 5 5 5 5 5 4 3 3 3 3 4 4 5 3 2 2 2 2 2 1 1 2 3 5 6 6 6 6 5 5 5 5 5
5 5 4 4 4 4 4 4 5 5 6 6 6 5 6 4 5 4 3 4 4 5 5 4 2 2 2 2 1 1 1 1 1 3 4 4 5 5 5 5 5 5 5
5 5 4 5 5 5 4 5 5 5 6 7 6 6 6 5 5 4 4 4 4 4 4 3 3 2 1 1 1 1 1 1 1 1 2 3 4 4 4 5 5 5 5
4 5 5 5 5 5 4 5 4 5 6 6 6 6 6 6 6 6 6 5 4 4 3 3 2 2 2 1 1 1 1 1 1 1 1 2 2 3 4 4 5 5 5
4 4 4 4 4 4 4 4 4 5 5 5 5 6 6 7 8 7 6 5 5 4 3 3 3 2 2 2 2 2 2 1 1 1 0 1 1 2 2 3 4 5 5
3 2 3 3 4 4 4 5 4 3 4 4 5 5 6 6 8 8 9 8 6 6 5 4 4 4 4 4 3 3 2 1 2 1 1 2 2 2 3 4 5 5 5
3 3 3 3 4 5 5 6 5 4 4 4 5 5 5 5 6 5 6 7 7 9 8 6 6 6 5 5 4 4 3 3 3 2 2 2 2 3 3 4 5 5 5
3 4 4 4 5 6 5 5 5 4 4 5 5 5 5 5 5 5 4 4 5 5 7 6 6 7 6 5 6 5 4 2 1 2 3 2 2 2 2 3 5 6 6
4 4 4 5 6 6 5 5 4 3 4 5 4 4 4 5 5 5 4 5 5 4 4 5 6 6 6 6 5 3 3 2 2 2 2 2 2 2 2 2 3 5 5
4 4 5 5 5 6 5 5 5 3 4 4 4 4 4 5 5 4 5 5 6 5 3 2 2 3 3 4 6 5 5 4 2 2 2 3 2 1 1 1 1 2 2
Wind_Direction
217 287 312 312 318 314 317 327 333 334 336 333 301 256 245 238 236 229 228 226 224 224 224 224 225 223 223 223 222 225 227 224 223 224 225 225 226 228 230 230 228 230 234
209 213 286 298 298 293 294 291 301 309 319 319 297 272 261 253 241 232 230 231 232 228 228 231 230 228 227 227 227 229 231 229 227 228 229 228 228 231 235 237 234 235 236
215 209 241 277 281 286 297 301 311 322 306 304 303 292 273 256 246 236 231 231 237 235 232 234 234 233 233 233 234 235 236 235 232 231 231 230 230 232 235 235 237 239 240
216 213 222 259 274 284 312 293 302 330 320 315 305 303 293 272 255 239 228 229 232 236 238 239 236 233 235 236 240 241 240 237 234 233 233 232 234 236 236 235 236 239 241
217 209 224 247 256 247 301 280 290 223 289 312 302 299 298 278 266 250 237 234 236 238 241 245 240 234 235 240 243 244 244 240 238 236 236 235 237 237 237 238 241 240 242
216 209 227 241 220 202 247 243 249 268 248 289 310 318 304 287 268 255 247 240 240 243 243 242 241 240 239 242 244 244 245 243 241 239 238 237 238 238 236 237 239 242 244
218 206 223 229 204 206 244 245 217 293 328 343 6 335 321 298 275 256 260 253 248 246 244 241 240 239 242 242 244 245 247 247 244 241 239 236 236 235 234 234 235 237 242
220 220 209 216 211 202 258 254 191 155 314 81 101 21 339 334 330 303 285 264 269 260 251 244 234 234 237 239 244 244 245 247 247 247 241 237 238 237 235 235 234 237 242
227 226 212 201 205 204 232 242 204 173 248 281 158 149 155 279 308 312 296 298 299 278 271 264 245 240 236 235 239 244 243 245 246 244 239 238 237 236 234 235 236 238 240
224 221 214 203 202 211 230 240 211 197 196 236 253 214 209 198 235 310 312 305 304 291 283 271 256 242 234 232 234 239 241 240 241 240 235 233 233 235 235 237 239 240 240
240 232 218 201 205 218 230 233 215 198 201 203 210 204 207 209 213 224 290 313 315 292 283 279 263 246 236 232 235 239 240 240 240 237 235 235 234 235 237 238 239 240 240
242 235 217 208 213 224 231 231 221 203 207 205 203 194 193 201 209 206 244 277 292 292 286 281 272 259 246 239 241 241 236 233 231 229 232 234 233 231 231 233 237 237 239
242 240 225 212 218 228 232 229 220 213 208 210 214 212 215 220 207 199 217 253 270 287 300 289 273 271 260 247 249 246 237 234 229 228 227 226 225 223 224 217 220 226 234
237 237 227 223 226 231 238 227 226 222 209 213 226 216 219 227 212 209 207 209 266 297 291 287 289 284 285 272 264 246 243 239 232 231 226 218 216 215 212 212 213 218 227
239 236 230 231 230 231 232 220 229 234 217 220 228 227 225 229 219 223 216 201 204 259 280 281 289 307 302 282 279 251 242 242 233 227 224 219 215 213 208 206 210 217 227
233 232 237 238 236 233 228 219 227 232 223 233 231 233 241 238 227 221 218 213 209 212 246 261 258 281 300 303 292 258 246 229 227 225 220 217 213 207 204 205 211 213 219
228 227 231 235 237 236 228 220 230 231 229 240 239 233 245 245 242 235 224 216 215 210 237 259 249 268 264 297 315 298 263 233 229 222 219 215 210 206 201 202 207 215 218
230 226 224 229 234 235 231 229 237 235 232 241 243 235 243 243 238 235 224 225 223 217 223 248 253 253 249 274 282 276 286 273 250 228 217 211 212 211 209 208 211 215 219
235 231 224 231 240 243 239 236 236 239 240 243 243 237 240 236 245 239 229 232 231 226 220 230 246 247 263 288 300 294 297 322 288 224 201 203 206 205 207 213 216 220 222
240 236 233 235 238 243 244 240 234 239 245 250 249 243 240 235 241 244 240 235 227 218 211 222 235 247 259 260 234 247 278 298 290 233 183 191 202 208 213 218 220 222 223
244 236 229 241 245 243 249 242 238 243 248 257 257 249 244 238 234 233 237 229 217 214 216 225 231 232 241 231 231 220 238 273 285 222 238 242 216 231 233 229 228 229 228
238 231 233 239 244 249 256 246 235 249 253 256 262 261 254 250 249 239 233 224 210 212 217 222 228 236 240 235 223 216 207 219 246 216 212 258 225 242 243 236 238 237 232
236 239 244 242 249 255 255 255 241 230 242 252 257 264 267 261 242 241 242 238 232 226 213 208 224 232 230 223 206 214 215 220 238 222 204 237 230 243 249 245 238 237 235
243 245 248 249 255 264 260 256 247 228 237 247 248 251 258 268 256 235 234 236 236 233 227 222 227 232 230 215 204 207 212 215 265 239 204 221 232 245 251 248 240 234 235
250 246 254 255 257 267 261 250 230 232 249 258 259 261 262 265 259 231 221 229 238 244 242 230 231 234 228 207 184 165 170 190 255 262 213 210 240 268 269 263 245 234 230
255 256 257 254 253 260 261 247 226 227 248 265 275 273 264 265 264 226 221 224 234 240 226 218 223 234 223 200 185 190 192 200 228 239 209 196 220 231 255 253 264 261 240
Height
1565 1566 1566 1567 1567 1567 1568 1568 1568 1568 1568 1568 1568 1568 1568 1568 1568 1568 1569 1569 1569 1569 1570 1570 1571 1571 1572 1572 1573 1573 1573 1574 1574 1574 1575 1576 1576 1577 1577 1578 1578 1579 1579
1566 1566 1567 1567 1567 1568 1568 1568 1568 1568 1568 1568 1568 1568 1568 1568 1568 1568 1568 1568 1568 1569 1569 1569 1570 1570 1571 1571 1571 1572 1572 1572 1573 1573 1574 1574 1575 1575 1576 1576 1576 1577 1577
1566 1566 1567 1567 1568 1568 1567 1568 1568 1567 1567 1567 1567 1567 1567 1567 1567 1567 1567 1567 1567 1568 1568 1568 1569 1569 1569 1569 1570 1570 1570 1571 1571 1571 1572 1572 1573 1573 1574 1574 1575 1575 1575
1566 1566 1567 1567 1567 1567 1567 1567 1567 1567 1567 1567 1567 1566 1566 1566 1566 1566 1566 1566 1566 1566 1567 1567 1567 1567 1568 1568 1568 1568 1569 1569 1569 1569 1570 1570 1571 1571 1572 1572 1572 1573 1573
1566 1566 1566 1567 1567 1567 1567 1567 1567 1567 1566 1566 1566 1565 1565 1565 1564 1564 1564 1564 1564 1565 1565 1566 1566 1566 1566 1566 1566 1567 1567 1567 1567 1567 1568 1568 1568 1569 1569 1570 1570 1570 1570
1565 1565 1565 1566 1566 1566 1566 1566 1566 1566 1566 1565 1565 1564 1564 1563 1563 1563 1563 1563 1563 1563 1564 1564 1564 1564 1564 1565 1565 1565 1565 1565 1565 1565 1565 1566 1566 1566 1567 1567 1567 1567 1567
1564 1564 1565 1565 1565 1566 1566 1565 1565 1565 1565 1564 1564 1563 1562 1562 1561 1561 1561 1561 1561 1562 1562 1562 1562 1562 1563 1563 1563 1563 1563 1563 1563 1563 1563 1563 1564 1564 1564 1564 1564 1564 1564
1563 1563 1564 1564 1565 1565 1565 1565 1565 1564 1564 1564 1563 1562 1561 1562 1560 1560 1560 1560 1560 1560 1560 1560 1560 1560 1561 1560 1561 1561 1560 1560 1560 1561 1561 1561 1561 1561 1561 1561 1561 1561 1561
1562 1562 1563 1563 1563 1563 1563 1563 1563 1563 1563 1562 1562 1562 1561 1560 1560 1559 1559 1559 1559 1558 1558 1558 1558 1558 1558 1558 1558 1558 1558 1558 1558 1558 1558 1558 1559 1559 1559 1558 1558 1558 1558
1560 1561 1561 1562 1562 1562 1562 1562 1562 1561 1561 1561 1561 1561 1561 1560 1560 1558 1558 1558 1557 1557 1556 1556 1556 1556 1556 1556 1556 1556 1556 1556 1556 1556 1556 1556 1556 1556 1556 1555 1555 1555 1554
1558 1559 1559 1559 1559 1560 1560 1560 1560 1560 1560 1559 1559 1559 1559 1558 1558 1558 1557 1556 1556 1555 1554 1554 1553 1553 1553 1553 1553 1553 1553 1553 1553 1553 1553 1553 1553 1553 1553 1552 1552 1552 1551
1556 1556 1557 1557 1557 1557 1557 1557 1557 1558 1558 1557 1557 1557 1557 1557 1556 1556 1555 1554 1553 1553 1552 1552 1551 1551 1550 1550 1550 1550 1550 1550 1550 1550 1550 1550 1550 1550 1550 1549 1549 1549 1548
1553 1554 1554 1555 1555 1555 1555 1555 1555 1555 1555 1555 1555 1555 1555 1555 1555 1554 1553 1552 1551 1551 1550 1550 1549 1548 1548 1548 1547 1547 1547 1547 1547 1547 1547 1546 1547 1547 1547 1546 1546 1546 1545
1550 1551 1551 1551 1552 1552 1552 1552 1552 1552 1552 1552 1552 1552 1553 1553 1552 1552 1551 1551 1549 1548 1548 1547 1547 1546 1546 1545 1545 1545 1544 1544 1544 1544 1543 1543 1543 1543 1543 1543 1543 1543 1542
1547 1547 1548 1548 1548 1549 1549 1549 1549 1549 1549 1549 1549 1550 1550 1550 1550 1549 1549 1548 1548 1546 1545 1545 1545 1544 1543 1543 1542 1541 1541 1541 1541 1541 1540 1540 1540 1540 1540 1540 1540 1540 1539
1543 1544 1544 1545 1545 1545 1546 1546 1546 1546 1546 1546 1546 1546 1546 1546 1546 1546 1545 1545 1545 1544 1543 1542 1542 1541 1541 1540 1539 1539 1538 1538 1538 1537 1537 1537 1537 1537 1536 1536 1536 1536 1536
1539 1540 1540 1541 1541 1541 1542 1542 1542 1542 1542 1542 1542 1542 1542 1542 1542 1542 1542 1542 1541 1541 1540 1539 1539 1538 1538 1537 1537 1536 1535 1535 1534 1534 1533 1533 1533 1533 1533 1533 1533 1533 1533
1535 1536 1536 1536 1537 1537 1537 1538 1538 1538 1538 1538 1538 1538 1538 1538 1538 1538 1538 1537 1537 1537 1536 1535 1535 1535 1534 1534 1533 1533 1532 1532 1531 1531 1531 1530 1530 1530 1530 1530 1530 1530 1530
1531 1531 1531 1532 1532 1533 1533 1533 1533 1533 1533 1533 1533 1533 1533 1533 1533 1533 1533 1533 1533 1533 1532 1532 1531 1531 1530 1530 1530 1529 1529 1528 1528 1528 1528 1527 1527 1528 1528 1527 1527 1527 1527
1527 1527 1527 1527 1527 1528 1528 1528 1528 1529 1528 1528 1528 1528 1528 1528 1528 1528 1529 1529 1529 1529 1528 1528 1527 1527 1527 1526 1526 1525 1525 1525 1525 1525 1525 1525 1525 1525 1524 1524 1524 1524 1523
1523 1523 1523 1523 1523 1524 1524 1524 1524 1524 1523 1523 1523 1523 1523 1523 1523 1523 1524 1523 1524 1524 1524 1524 1524 1523 1522 1522 1522 1521 1521 1521 1521 1521 1521 1521 1521 1521 1521 1521 1521 1520 1520
1519 1519 1518 1519 1519 1519 1519 1519 1519 1519 1519 1519 1518 1518 1518 1518 1518 1518 1518 1518 1519 1519 1519 1519 1519 1518 1518 1518 1518 1518 1518 1517 1517 1518 1517 1518 1518 1518 1518 1517 1517 1517 1516
1515 1515 1515 1515 1515 1515 1515 1515 1515 1515 1515 1514 1514 1513 1513 1513 1513 1513 1513 1513 1514 1514 1515 1515 1514 1514 1514 1514 1514 1514 1514 1513 1513 1514 1514 1513 1514 1514 1514 1513 1513 1513 1513
1511 1511 1511 1511 1511 1511 1511 1510 1510 1510 1510 1509 1509 1509 1508 1508 1508 1508 1508 1508 1509 1509 1510 1510 1510 1510 1510 1510 1510 1510 1510 1510 1510 1510 1511 1510 1510 1510 1510 1510 1509 1509 1509
1508 1508 1507 1507 1507 1506 1506 1506 1505 1505 1505 1504 1504 1504 1503 1503 1503 1503 1503 1503 1503 1504 1505 1505 1505 1506 1506 1506 1506 1506 1506 1506 1505 1506 1506 1506 1506 1506 1506 1506 1506 1506 1506
1504 1504 1503 1503 1502 1501 1501 1501 1501 1500 1500 1499 1499 1499 1499 1498 1498 1498 1498 1498 1498 1499 1500 1500 1501 1501 1502 1502 1502 1502 1502 1501 1501 1501 1502 1502 1502 1502 1502 1502 1502 1502 1502